Hourly Data Report for August 13, 2018

TORONTO CITY
ONTARIO
Current Station Operator: ECCC - MSC

43°40'00.000" N
79°24'00.000" W
112.50 m
6158355
71508
XTO

Download Data

Hourly Data (August 2018)
Hourly Data Report for August 13, 2018
TIME
LST
Temp Definition
°C
Dew Point Definition
°C
Rel Hum Definition
%
Precip. Amount Definition
mm

Wind Dir Definition
10's deg

Wind Spd Definition
km/h
Visibility Definition
km
Stn Press Definition
kPa
Hmdx Definition


Wind Chill Definition


Weather Definition


00:00 23.3 13.3 53 0.0 LegendMM LegendMM   100.63 26   LegendNANA
01:00 22.7 14.1 58 0.0 LegendMM LegendMM   100.59 26   LegendNANA
02:00 21.5 14.2 63 0.0 LegendMM LegendMM   100.54 25   LegendNANA
03:00 21.3 14.5 65 0.0 LegendMM LegendMM   100.51 25   LegendNANA
04:00 21.5 15.8 70 0.0 LegendMM LegendMM   100.48 26   LegendNANA
05:00 21.8 16.5 72 0.0 LegendMM LegendMM   100.49 27   LegendNANA
06:00 21.6 15.7 69 0.0 LegendMM LegendMM   100.53 26   LegendNANA
07:00 22.6 15.3 63 0.0 LegendMM LegendMM   100.56 27   LegendNANA
08:00 23.9 14.9 57 0.0 LegendMM LegendMM   100.54 28   LegendNANA
09:00 25.8 13.7 47 0.0 LegendMM LegendMM   100.56 29   LegendNANA
10:00 25.8 13.3 46 0.0 LegendMM LegendMM   100.58 29   LegendNANA
11:00 26.1 13.7 46 0.0 LegendMM LegendMM   100.51 29   LegendNANA
12:00 26.7 13.6 44 0.0 LegendMM LegendMM   100.43 30   LegendNANA
13:00 27.4 13.7 43 0.0 LegendMM LegendMM   100.40 31   LegendNANA
14:00 26.5 14.8 49 0.0 LegendMM LegendMM   100.33 30   LegendNANA
15:00 25.4 15.3 54 0.0 LegendMM LegendMM   100.29 30   LegendNANA
16:00 25.4 17.1 60 0.0 LegendMM LegendMM   100.24 31   LegendNANA
17:00 24.9 17.7 64 0.0 LegendMM LegendMM   100.20 31   LegendNANA
18:00 24.3 17.9 67 0.0 LegendMM LegendMM   100.18 30   LegendNANA
19:00 24.2 17.4 66 0.0 LegendMM LegendMM   100.16 30   LegendNANA
20:00 24.1 17.1 65 0.0 LegendMM LegendMM   100.14 29   LegendNANA
21:00 23.8 17.9 70 0.0 LegendMM LegendMM   100.15 30   LegendNANA
22:00 23.6 17.8 70 0.0 LegendMM LegendMM   100.12 29   LegendNANA
23:00 23.9 16.7 64 0.0 LegendMM LegendMM   100.10 29   LegendNANA

Notes on Data Quality.

Legend

  • E = Estimated
  • M = Missing
  • NA = Not Available*
  • [empty] = Indicates an unobserved value
Date modified: